logo tempoitalia

Diretta Meteo Saint-Pierre, Reunionlunedì 31 agosto ore 09:00

Mappa
Sereno 24 °C Sereno 24 Ore: T.min 18 T.max 25
Ponente Sud-Est Km/h 18.5 Punto di rugiada: 15 °C Umidità: 57% Visibilità: 10 Km
Il sole sorge alle: 06:28 Il sole tramonta alle: 18:08
31 Agosto 2026 09:00 tempo osservato: Sereno Sereno 24 57 1027 vento: Nord SE 18.5
31 Agosto 2026 08:30 tempo osservato: Sereno Sereno 24 50 1027 vento: Nord N 7.4
31 Agosto 2026 08:00 tempo osservato: Sereno Sereno 23 53 1026 vento: Nord S 9.3
31 Agosto 2026 07:30 tempo osservato: Sereno Sereno 21 56 1027 vento: Nord E/SE 13
31 Agosto 2026 07:00 tempo osservato: Sereno Sereno 19 59 1026 vento: Nord N/NE 14.8
31 Agosto 2026 06:30 tempo osservato: Sereno Sereno 19 72 1026 vento: Nord E 11.1
31 Agosto 2026 06:00 tempo osservato: Sereno Sereno 18 63 1026 vento: Nord E/SE 14.8
31 Agosto 2026 05:30 tempo osservato: Sereno Sereno 18 63 1026 vento: Nord N/NE 7.4
31 Agosto 2026 05:00 tempo osservato: Sereno Sereno 18 63 1026 vento: Nord E/NE 13
31 Agosto 2026 04:30 tempo osservato: Sereno Sereno 18 63 1026 vento: Nord E 7.4
31 Agosto 2026 04:00 tempo osservato: Sereno Sereno 18 63 1026 vento: Nord NE 9.3
31 Agosto 2026 03:30 tempo osservato: Sereno Sereno 18 63 1026 vento: Nord N 3.7
31 Agosto 2026 03:00 tempo osservato: Nuvoloso Nuvoloso 19 59 1026 vento: Nord NE 13
31 Agosto 2026 02:30 tempo osservato: Sereno Sereno 19 59 1026 vento: Nord E/SE 11.1
31 Agosto 2026 02:00 tempo osservato: Sereno Sereno 19 59 1026 vento: Nord N/NO 9.3
31 Agosto 2026 01:30 tempo osservato: Poco Nuvoloso Poco Nuvoloso 19 59 1027 vento: Nord E/NE 9.3
31 Agosto 2026 01:00 tempo osservato: Sereno Sereno 19 59 1027 vento: Nord E 7.4
31 Agosto 2026 00:30 tempo osservato: Sereno Sereno 19 63 1027 vento: Nord E 11.1
31 Agosto 2026 00:00 tempo osservato: Sereno Sereno 20 64 1028 vento: Nord NE 11.1
30 Agosto 2026 23:30 tempo osservato: Sereno Sereno 20 64 1028 vento: Nord E/NE 7.4
30 Agosto 2026 23:00 tempo osservato: Sereno Sereno 20 59 1028 vento: Nord N/NE 11.1
30 Agosto 2026 22:30 tempo osservato: Sereno Sereno 21 56 1028 vento: Nord E/SE 14.8
30 Agosto 2026 22:00 tempo osservato: Sereno Sereno 21 56 1028 vento: Nord E 13
30 Agosto 2026 21:30 tempo osservato: Sereno Sereno 20 64 1028 vento: Nord E/NE 9.3
30 Agosto 2026 21:00 tempo osservato: Sereno Sereno 22 56 1027 vento: Nord E/SE 25.9
30 Agosto 2026 20:30 tempo osservato: Sereno Sereno 22 60 1027 vento: Nord SE 29.6
30 Agosto 2026 20:00 tempo osservato: Sereno Sereno 22 60 1027 vento: Nord SE 33.3
30 Agosto 2026 19:30 tempo osservato: Sereno Sereno 21 68 1026 vento: Nord SE 25.9
30 Agosto 2026 19:00 tempo osservato: Sereno Sereno 22 56 1026 vento: Nord E/SE 20.3
30 Agosto 2026 18:30 tempo osservato: Sereno Sereno 22 60 1026 vento: Nord SE 24
30 Agosto 2026 18:00 tempo osservato: Sereno Sereno 22 64 1025 vento: Nord SE 33.3
30 Agosto 2026 17:30 tempo osservato: Sereno Sereno 22 68 1025 vento: Nord SE 40.7
30 Agosto 2026 17:00 tempo osservato: Sereno Sereno 23 60 1025 vento: Nord E/SE 38.8
30 Agosto 2026 16:30 tempo osservato: Sereno Sereno 23 64 1025 vento: Nord SE 46.3
30 Agosto 2026 16:00 tempo osservato: Sereno Sereno 23 64 1025 vento: Nord SE 51.8
30 Agosto 2026 15:30 tempo osservato: Sereno Sereno 24 60 1024 vento: Nord SE 50
30 Agosto 2026 15:00 tempo osservato: Sereno Sereno 24 60 1025 vento: Nord SE 51.8
30 Agosto 2026 14:30 tempo osservato: Sereno Sereno 25 53 1025 vento: Nord SE 48.1
30 Agosto 2026 14:00 tempo osservato: Sereno Sereno 25 53 1025 vento: Nord SE 53.7
30 Agosto 2026 13:30 tempo osservato: Sereno Sereno 24 57 1026 vento: Nord SE 57.3
30 Agosto 2026 13:00 tempo osservato: Sereno Sereno 23 64 1026 vento: Nord SE 57.3
30 Agosto 2026 12:30 tempo osservato: Sereno Sereno 24 64 1026 vento: Nord SE 53.7
30 Agosto 2026 12:00 tempo osservato: Poco Nuvoloso Poco Nuvoloso 24 60 1027 vento: Nord SE 50
30 Agosto 2026 11:30 tempo osservato: Sereno Sereno 24 60 1027 vento: Nord SE 46.3
30 Agosto 2026 11:00 tempo osservato: Sereno Sereno 25 53 1028 vento: Nord SE 35.2
30 Agosto 2026 10:30 tempo osservato: Sereno Sereno 24 57 1028 vento: Nord E/SE 29.6
30 Agosto 2026 10:00 tempo osservato: Poco Nuvoloso Poco Nuvoloso 24 64 1028 vento: Nord E/SE 31.5